Date_and_time,latitude,longitude,wind_speed,RelWindDirFrom,WindDirFrom,air_pressure,air_temperature,relative_humidity,Temp,platform_speed_wrt_ground,air_pressure_at_mean_sea_level,platform_orientation
2018-07-18 00:00,53.2681316666667,-98.4227283333333,23.1,24.8,179,985.43,18.1,84,15.57,10.7,1011.50,168.5
2018-07-18 00:10,53.2408816666667,-98.4440666666667,24.0,25.9,178,985.27,18.3,83,15.70,10.8,1011.32,168.5
2018-07-18 00:20,53.2138266666667,-98.4651116666667,23.1,24.9,176,985.26,18.4,83,15.82,10.7,1011.31,168.5
2018-07-18 00:30,53.1869333333333,-98.4867816666667,22.4,24.4,177,985.23,18.4,84,15.92,10.8,1011.27,168.5
2018-07-18 00:40,53.1597133333333,-98.5080266666667,21.6,23.5,180,985.23,19.2,78,16.06,10.8,1011.24,168.5
2018-07-18 00:50,53.1321583333333,-98.5290366666667,19.5,21.7,186,985.33,20.1,75,16.24,10.9,1011.31,168.5
2018-07-18 01:00,53.1045333333333,-98.5490066666667,21.3,22.2,201,985.22,22.2,61,16.34,10.8,1011.10,203.3
2018-07-18 01:10,53.0770783333333,-98.5678633333333,21.2,22.9,206,985.09,24.1,51,17.33,10.7,1010.88,203.3
2018-07-18 01:20,53.066565,-98.5835883333333,15.0,22.9,209,985.44,25.6,44,18.30,5.1,1011.18,203.3
2018-07-18 01:30,53.0672466666667,-98.583155,10.5,14.1,210,985.69,25.8,44,18.48,0.3,1011.42,203.3
2018-07-18 01:40,53.0672633333333,-98.5831033333333,10.6,12.9,205,985.61,25.7,45,18.54,0.0,1011.33,203.3
2018-07-18 01:50,53.0672266666667,-98.5831316666667,10.5,13.5,210,985.55,25.4,46,18.58,0.0,1011.27,203.3
2018-07-18 02:00,53.06726,-98.5831066666667,10.4,13.1,209,985.45,25.2,46,18.62,0.0,1011.17,206.0
2018-07-18 02:10,53.0672266666667,-98.5831083333333,11.6,14.6,214,985.36,25.0,47,18.64,0.0,1011.08,206.0
2018-07-18 02:20,53.06723,-98.5830783333333,11.1,14.6,213,985.38,24.7,48,18.65,0.0,1011.12,206.0
2018-07-18 02:30,53.067235,-98.5830916666667,10.9,12.9,213,985.43,24.4,49,18.64,0.0,1011.14,206.0
2018-07-18 02:40,53.067235,-98.5831033333333,11.5,14.1,212,985.40,24.2,50,18.65,0.0,1011.08,206.0
2018-07-18 02:50,53.0672516666667,-98.5831283333333,10.7,13.8,208,985.50,23.9,51,18.67,0.0,1011.11,206.0
2018-07-18 03:00,53.0672316666667,-98.5831183333333,10.1,11.8,206,985.57,23.5,52,18.69,0.0,1011.12,205.6
2018-07-18 03:10,53.0672433333333,-98.583105,10.4,12.1,208,985.57,23.0,54,18.71,0.0,1011.07,205.6
2018-07-18 03:20,53.067245,-98.5831233333333,10.1,12.2,206,985.56,22.8,55,18.73,0.0,1011.07,205.6
2018-07-18 03:30,53.0672616666667,-98.583145,9.6,11.4,201,985.52,22.5,57,18.76,0.0,1011.04,205.6
2018-07-18 03:40,53.067265,-98.5831283333333,10.4,12.9,202,985.47,22.2,57,18.80,0.0,1011.01,205.6
2018-07-18 03:50,53.067265,-98.5831483333333,11.4,14.4,205,985.36,22.3,57,18.83,0.0,1010.90,205.6
2018-07-18 04:00,53.0672683333333,-98.5831383333333,11.9,14.3,205,985.24,22.5,56,18.84,0.0,1010.78,208.8
2018-07-18 04:10,53.0672683333333,-98.58315,12.4,14.6,206,985.17,22.5,56,18.81,0.0,1010.73,208.8
2018-07-18 04:20,53.0672733333333,-98.58317,13.1,16.2,206,985.07,22.3,57,18.78,0.0,1010.64,208.8
2018-07-18 04:30,53.0672766666667,-98.5831633333333,13.2,15.2,206,985.03,22.1,58,18.76,0.0,1010.62,208.8
2018-07-18 04:40,53.0672733333333,-98.5831466666667,13.1,14.8,206,985.02,21.9,59,18.71,0.0,1010.63,208.8
2018-07-18 04:50,53.0672683333333,-98.5831166666667,12.2,14.5,205,985.01,21.8,59,18.66,0.0,1010.64,208.8
2018-07-18 05:00,53.0672483333333,-98.5831233333333,12.5,14.7,207,985.00,21.6,60,18.62,0.0,1010.66,210.0
2018-07-18 05:10,53.0672716666667,-98.5831133333333,13.2,18.2,210,984.94,21.6,60,18.58,0.0,1010.61,210.0
2018-07-18 05:20,53.067245,-98.583075,13.4,16.8,209,984.87,21.7,60,18.53,0.0,1010.55,210.0
2018-07-18 05:30,53.0672533333333,-98.58305,12.7,16.1,212,984.84,21.4,61,18.49,0.0,1010.54,210.0
2018-07-18 05:40,53.0672533333333,-98.5830616666667,13.7,16.5,214,984.71,21.4,61,18.44,0.0,1010.41,210.0
2018-07-18 05:50,53.0672233333333,-98.58304,13.9,16.6,216,984.73,21.4,61,18.39,0.0,1010.41,210.0
2018-07-18 06:00,53.0672266666667,-98.583035,13.7,15.7,214,984.73,21.4,62,18.34,0.0,1010.41,90.0
2018-07-18 06:10,53.0672433333333,-98.5830216666667,14.1,16.1,217,984.73,21.3,62,18.34,0.0,1010.43,90.0
2018-07-18 06:20,53.0672066666667,-98.5830083333333,13.6,16.1,219,984.78,21.3,63,18.33,0.0,1010.49,90.0
2018-07-18 06:30,53.0672183333333,-98.5830233333333,13.9,16.1,219,984.72,21.2,63,18.31,0.0,1010.44,90.0
2018-07-18 06:40,53.0672083333333,-98.5830033333333,13.9,16.1,221,984.68,21.2,63,18.28,0.0,1010.41,90.0
2018-07-18 06:50,53.0671933333333,-98.5830016666667,13.7,16.5,222,984.65,21.2,63,18.28,0.0,1010.38,90.0
2018-07-18 07:00,53.0671933333333,-98.5829516666667,14.2,16.9,224,984.56,21.4,63,18.30,0.0,1010.28,123.5
2018-07-18 07:10,53.0671666666667,-98.5829233333333,14.8,17.3,228,984.48,21.6,62,18.29,0.0,1010.19,123.5
2018-07-18 07:20,53.0671733333333,-98.5829333333333,14.6,17.0,227,984.43,21.6,62,18.35,0.0,1010.15,123.5
2018-07-18 07:30,53.06719,-98.5829416666667,14.3,17.7,226,984.41,21.5,63,18.37,0.0,1010.13,123.5
2018-07-18 07:40,53.067165,-98.5829316666667,14.4,16.3,227,984.40,21.4,63,18.36,0.0,1010.12,123.5
2018-07-18 07:50,53.0671766666667,-98.582935,13.8,16.0,227,984.41,21.1,65,18.35,0.0,1010.15,123.5
2018-07-18 08:00,53.067175,-98.58292,14.3,16.6,225,984.37,21.0,65,18.38,0.0,1010.11,120.8
2018-07-18 08:10,53.0671633333333,-98.582935,14.6,17.1,227,984.33,21.0,65,18.41,0.0,1010.08,120.8
2018-07-18 08:20,53.0671633333333,-98.5829433333333,14.1,17.0,228,984.35,21.0,65,18.40,0.0,1010.10,120.8
2018-07-18 08:30,53.06714,-98.5828983333333,14.3,17.4,231,984.28,21.1,64,18.37,0.0,1010.03,120.8
2018-07-18 08:40,53.0671183333333,-98.582875,15.3,18.0,234,984.15,21.5,62,18.34,0.0,1009.87,120.8
2018-07-18 08:50,53.0671133333333,-98.58286,15.3,18.8,237,984.08,21.6,62,18.33,0.0,1009.79,120.8
2018-07-18 09:00,53.0670816666667,-98.5828283333333,15.1,17.5,239,984.05,21.7,61,18.31,0.0,1009.75,139.5
2018-07-18 09:10,53.0671133333333,-98.5828533333333,14.6,17.5,241,984.07,21.7,61,18.31,0.0,1009.77,139.5
2018-07-18 09:20,53.0670333333333,-98.582795,14.6,16.8,240,984.02,21.8,61,18.31,0.0,1009.71,139.5
2018-07-18 09:30,53.0670816666667,-98.5827883333333,14.3,16.5,240,984.02,21.7,61,18.34,0.0,1009.72,139.5
2018-07-18 09:40,53.0670833333333,-98.5827866666667,14.3,17.1,243,984.02,21.7,62,18.36,0.0,1009.74,139.5
2018-07-18 09:50,53.06708,-98.58279,14.2,16.9,243,983.99,21.6,62,18.37,0.0,1009.71,139.5
2018-07-18 10:00,53.0670566666667,-98.5827783333333,13.8,17.0,242,983.97,21.5,63,18.36,0.0,1009.70,143.1
2018-07-18 10:10,53.0670716666667,-98.5827583333333,13.3,15.8,240,983.98,21.4,63,18.35,0.0,1009.71,143.1
2018-07-18 10:20,53.0671266666667,-98.5828316666667,13.2,15.5,241,983.92,21.3,64,18.34,0.0,1009.65,143.1
2018-07-18 10:30,53.0670933333333,-98.5828016666667,13.3,16.5,242,983.92,21.2,64,18.33,0.0,1009.64,143.1
2018-07-18 10:40,53.0670233333333,-98.5827733333333,12.0,14.9,244,984.00,21.1,65,18.32,0.0,1009.72,143.1
2018-07-18 10:50,53.0670683333333,-98.582785,12.1,14.7,245,984.05,21.2,65,18.31,0.0,1009.76,143.1
2018-07-18 11:00,53.067055,-98.5828066666667,11.4,15.1,245,984.09,21.2,65,18.31,0.0,1009.80,152.6
2018-07-18 11:10,53.0669716666667,-98.5829333333333,11.1,13.9,246,984.03,21.2,65,18.31,0.0,1009.73,152.6
2018-07-18 11:20,53.0850566666667,-98.57654,9.5,13.5,274,984.17,21.1,66,18.29,6.7,1009.89,152.6
2018-07-18 11:30,53.1149283333333,-98.5655916666667,10.6,12.6,294,984.27,20.2,72,17.41,11.0,1010.03,152.6
2018-07-18 11:40,53.14472,-98.5538016666667,10.4,12.8,295,984.27,19.3,78,16.57,11.0,1010.08,152.6
2018-07-18 11:50,53.1746783333333,-98.5457,10.9,13.1,293,984.23,18.7,83,16.64,10.9,1010.07,152.6
2018-07-18 12:00,53.204475,-98.5341883333333,10.3,11.2,302,984.24,18.5,85,16.50,11.0,1010.09,12.0
2018-07-18 12:10,53.2344733333333,-98.523305,10.8,11.7,307,984.17,18.2,89,16.29,11.1,1010.04,12.0
2018-07-18 12:20,53.2647483333333,-98.5163933333333,11.5,13.9,306,984.10,18.0,90,15.90,11.0,1009.98,12.0
2018-07-18 12:30,53.2948266666667,-98.5054183333333,10.7,11.9,312,984.10,17.7,91,15.55,11.1,1009.99,12.0
2018-07-18 12:40,53.3249166666667,-98.494685,10.9,11.8,313,984.08,17.6,91,15.44,11.1,1009.98,12.0
2018-07-18 12:50,53.3550083333333,-98.484025,11.0,12.1,315,983.99,17.4,93,15.39,11.1,1009.90,12.0
2018-07-18 13:00,53.3836,-98.468565,11.0,13.2,318,984.01,17.5,93,15.34,10.8,1009.91,12.1
2018-07-18 13:10,53.3872966666667,-98.4595266666667,8.3,10.6,270,984.19,17.6,93,15.42,2.4,1010.09,12.1
2018-07-18 13:20,53.3896366666667,-98.4433933333333,5.9,14.9,262,984.28,17.8,93,15.45,3.6,1010.22,12.1
2018-07-18 13:30,53.4087716666667,-98.4029733333333,3.8,5.3,347,984.43,17.6,92,15.48,11.1,1010.42,12.1
2018-07-18 13:40,53.4282033333333,-98.36294,3.8,7.2,350,984.32,17.7,92,15.65,11.1,1010.33,12.1
2018-07-18 13:50,53.44756,-98.32252,4.1,6.4,351,984.16,17.8,92,15.93,11.1,1010.17,12.1
2018-07-18 14:00,53.46679,-98.2820566666667,6.4,8.1,357,984.08,17.9,92,16.16,11.1,1010.10,24.1
2018-07-18 14:10,53.4859133333333,-98.2412633333333,6.6,8.0,350,984.08,17.9,92,16.45,11.1,1010.11,24.1
2018-07-18 14:20,53.50533,-98.2006433333333,6.2,8.4,359,984.07,18.0,93,16.63,11.2,1010.10,24.1
2018-07-18 14:30,53.5246966666667,-98.16011,7.0,8.0,10,983.97,17.9,95,16.81,11.1,1010.01,24.1
2018-07-18 14:40,53.5440833333333,-98.119735,6.9,7.9,20,984.02,18.1,96,17.14,11.1,1010.06,24.1
2018-07-18 14:50,53.5633483333333,-98.0789283333333,7.7,8.4,29,983.94,18.3,97,17.40,11.1,1009.96,24.1
2018-07-18 15:00,53.588495,-98.049045,9.6,10.9,22,983.81,18.3,99,17.55,11.1,1009.83,36.8
2018-07-18 15:10,53.5979616666667,-98.0350983333333,5.7,12.0,22,983.78,18.7,96,17.81,4.5,1009.77,36.8
2018-07-18 15:20,53.6045916666667,-98.0128533333333,5.2,11.0,57,983.76,19.5,91,17.95,5.3,1009.72,36.8
2018-07-18 15:30,53.6152066666667,-97.9698783333333,9.5,10.9,60,983.66,19.1,96,18.13,9.9,1009.63,36.8
2018-07-18 15:40,53.6166583333333,-97.9669566666667,1.4,4.7,327,983.91,19.8,93,18.31,0.8,1009.85,36.8
2018-07-18 15:50,53.6167266666667,-97.9669533333333,2.7,5.6,260,983.90,20.2,92,18.26,0.0,1009.82,36.8
2018-07-18 16:00,53.6167066666667,-97.9669266666667,4.5,7.3,237,983.89,19.8,94,18.30,0.0,1009.83,51.8
2018-07-18 16:10,53.6166666666667,-97.9668866666667,5.0,5.9,247,983.84,19.7,96,18.25,0.0,1009.78,51.8
2018-07-18 16:20,53.6167083333333,-97.9668916666667,7.3,9.0,237,983.79,19.4,96,18.23,0.0,1009.74,51.8
2018-07-18 16:30,53.61661,-97.96678,8.6,9.7,251,983.79,19.2,98,18.24,0.0,1009.74,51.8
2018-07-18 16:40,53.6166533333333,-97.9667716666667,9.0,9.8,252,983.86,19.2,97,18.22,0.0,1009.81,51.8
2018-07-18 16:50,53.616625,-97.9667816666667,9.5,10.5,244,983.92,19.2,97,18.37,0.0,1009.86,51.8
2018-07-18 17:00,53.6166183333333,-97.9667566666667,9.1,10.1,252,983.93,19.3,96,18.34,0.0,1009.86,51.2
2018-07-18 17:10,53.6166416666667,-97.9668033333333,8.8,9.9,246,983.92,19.4,94,18.27,0.0,1009.81,51.2
2018-07-18 17:20,53.6166566666667,-97.9668283333333,8.1,9.3,245,983.92,19.6,92,18.26,0.0,1009.82,51.2
2018-07-18 17:30,53.6166516666667,-97.966835,7.6,8.4,248,983.88,19.8,92,18.24,0.0,1009.73,51.2
2018-07-18 17:40,53.6166233333333,-97.9668216666667,6.8,7.4,255,983.80,19.8,92,18.21,0.0,1009.63,51.2
2018-07-18 17:50,53.611415,-97.99724,12.6,17.1,258,983.41,19.9,92,18.55,6.8,1009.25,51.2
2018-07-18 18:00,53.6125966666667,-98.0493883333333,16.2,16.8,274,983.11,19.7,93,18.80,11.1,1008.96,359.0
2018-07-18 18:10,53.614115,-98.1016483333333,16.2,17.0,272,983.08,19.8,90,18.75,11.2,1008.94,359.0
2018-07-18 18:20,53.6158316666667,-98.1539016666667,15.3,15.7,276,983.13,20.1,89,18.69,11.2,1008.98,359.0
2018-07-18 18:30,53.64079,-98.1476883333333,8.6,15.5,341,983.39,19.9,92,18.66,9.1,1009.25,359.0
2018-07-18 18:40,53.6689866666667,-98.1258966666667,9.0,10.0,3,983.40,20.0,90,18.61,11.2,1009.25,359.0
2018-07-18 18:50,53.69719,-98.1040933333333,8.0,9.1,4,983.31,20.3,89,18.86,11.2,1009.16,359.0
2018-07-18 19:00,53.723935,-98.0834166666667,5.1,6.9,0,983.23,20.6,87,19.03,10.6,1009.05,327.3
2018-07-18 19:10,53.73668,-98.0775266666667,3.5,4.8,282,983.17,21.0,84,19.60,4.8,1008.96,327.3
2018-07-18 19:20,53.7458366666667,-98.0787966666667,3.5,5.0,283,983.12,21.3,83,19.98,3.3,1008.89,327.3
2018-07-18 19:30,53.751335,-98.07343,1.1,6.0,277,983.11,21.4,83,19.53,2.3,1008.87,327.3
2018-07-18 19:40,53.7513133333333,-98.0733916666667,2.4,3.1,240,983.09,21.8,81,18.78,0.0,1008.83,327.3
2018-07-18 19:50,53.7513216666667,-98.0734066666667,2.8,3.3,232,983.08,22.0,80,18.71,0.0,1008.82,327.3
2018-07-18 20:00,53.7513183333333,-98.0734183333333,3.1,3.7,235,983.04,22.0,80,18.71,0.0,1008.77,334.9
2018-07-18 20:10,53.7513133333333,-98.07341,3.1,3.7,252,982.98,22.2,79,18.72,0.0,1008.69,334.9
2018-07-18 20:20,53.7513133333333,-98.0733966666667,3.0,3.5,264,982.97,22.5,78,18.75,0.0,1008.68,334.9
2018-07-18 20:30,53.7513116666667,-98.0733933333333,3.4,4.1,266,982.85,22.5,78,18.78,0.0,1008.55,334.9
2018-07-18 20:40,53.7513066666667,-98.073395,3.3,4.1,264,982.82,22.8,77,18.83,0.0,1008.49,334.9
2018-07-18 20:50,53.75086,-98.07463,3.4,8.0,267,982.79,22.9,76,18.91,0.3,1008.45,334.9
2018-07-18 21:00,53.73777,-98.0860133333333,6.3,9.1,234,982.72,22.8,78,19.37,5.3,1008.36,350.2
2018-07-18 21:10,53.7104316666667,-98.1090316666667,11.4,12.3,225,982.50,22.5,81,19.58,11.0,1008.13,350.2
2018-07-18 21:20,53.6825966666667,-98.1321666666667,12.1,14.4,223,982.49,22.5,85,19.37,11.2,1008.11,350.2
2018-07-18 21:30,53.654695,-98.15506,15.1,17.8,211,982.23,22.8,82,19.01,11.2,1007.82,350.2
2018-07-18 21:40,53.6268933333333,-98.1780883333333,16.8,17.9,210,982.07,22.4,80,18.76,11.2,1007.66,350.2
2018-07-18 21:50,53.59782,-98.1934766666667,16.5,17.8,204,982.03,22.0,83,18.97,11.0,1007.64,350.2
2018-07-18 22:00,53.56778,-98.204515,15.4,16.3,201,981.94,21.7,87,18.83,11.1,1007.55,204.7
2018-07-18 22:10,53.5377683333333,-98.21566,16.8,19.0,197,981.67,21.6,91,18.44,11.1,1007.27,204.7
2018-07-18 22:20,53.5077866666667,-98.2271133333333,14.2,16.5,185,981.67,21.3,93,18.44,11.1,1007.28,204.7
2018-07-18 22:30,53.4778333333333,-98.23864,13.8,14.8,180,981.55,21.3,90,18.27,11.1,1007.14,204.7
2018-07-18 22:40,53.44794,-98.2502583333333,16.2,17.9,180,981.35,21.5,82,18.17,11.0,1006.93,204.7
2018-07-18 22:50,53.4181283333333,-98.260815,13.9,15.2,176,981.38,21.4,90,18.25,11.0,1006.96,204.7
2018-07-18 23:00,53.3882233333333,-98.271475,12.8,13.8,173,981.27,20.8,99,18.68,11.0,1006.89,198.0
2018-07-18 23:10,53.3583633333333,-98.281635,14.0,15.0,178,981.08,20.8,97,17.99,11.0,1006.70,198.0
2018-07-18 23:20,53.3284433333333,-98.2917033333333,13.1,15.6,176,980.97,21.5,84,17.58,11.0,1006.54,198.0
2018-07-18 23:30,53.2984683333333,-98.302055,14.7,15.3,169,980.67,23.0,62,18.34,11.0,1006.18,198.0
